Simultaneous Nadir Overpasses (SNOs) Predictions

Prediction of SNOs between NOAA-21 and PACE Satellite Orbit:

Table of predicted SNOs for the next 14.0 days since TLE Epoch: 5/17/2024
Index Date (NOAA-21) Time (NOAA-21) Lat,Lon (NOAA-21) SZA (NOAA-21 ) Date (PACE) Time (PACE) Lat,Lon (PACE) SZA (PACE ) Distance(km) Time Diff (sec)
1 05/18/2024 15:34:14 79.75, -90.36 62.04 05/18/2024 15:34:36 79.75, -90.22 62.01 2.83 22
2 05/18/2024 16:24:51 -79.52, 79.02 118.39 05/18/2024 16:23:39 -79.51, 79.16 118.38 3.10 72
3 05/20/2024 20:00:35 79.70,-156.46 61.49 05/20/2024 20:00:48 79.70,-156.42 61.48 0.99 13
4 05/23/2024 00:26:57 79.68, 137.08 61.05 05/23/2024 00:27:00 79.68, 137.12 61.04 0.86 3
5 05/25/2024 04:53:19 79.68, 70.56 60.64 05/25/2024 04:53:11 79.67, 70.68 60.62 2.43 8
6 05/27/2024 08:30:01 -81.12, 174.98 116.08 05/27/2024 08:31:14 -81.50, 175.89 116.05 44.56 73
7 05/27/2024 09:19:39 79.61, 4.54 60.17 05/27/2024 09:19:20 79.61, 4.51 60.18 0.75 19
8 05/29/2024 12:55:23 -79.84, 128.54 119.75 05/29/2024 12:56:26 -79.84, 128.62 119.79 1.49 63
9 05/29/2024 13:45:59 79.55, -61.55 59.74 05/29/2024 13:45:28 79.56, -61.66 59.76 2.23 31
10 05/31/2024 17:21:44 -79.82, 62.13 120.08 05/31/2024 17:22:34 -79.82, 62.22 120.12 1.94 50



Historial Predications of SNOs between NOAA-21 and PACE
